Saint Bonnet de Bellac- Haute Vienne - France
Donnes mto: mercredi, 25/01/2012
Date Horaire Temp. E. Hum. E. P.atmo. Pluie Vent Direction Direction Ensoleilleme Solaire P. de rose Temp au vent Rafales
25/01/2012 00:00 7,9 C 93 % 1022,1 hPa 0,0 mm 0,7 km/h (0 Bft) O-SO 247 0 min 0 W/m 6,8 C 7,9 C 4,0 km/h (1 Bft)
25/01/2012 00:10 7,9 C 93 % 1022,1 hPa 0,0 mm 0,0 km/h (0 Bft) O-SO 247 0 min 0 W/m 6,8 C 7,9 C 0,0 km/h (0 Bft)
25/01/2012 00:20 7,9 C 93 % 1022,1 hPa 0,0 mm 0,4 km/h (0 Bft) O-SO 247 0 min 0 W/m 6,8 C 7,9 C 0,4 km/h (0 Bft)
25/01/2012 00:30 7,8 C 93 % 1022,1 hPa 0,0 mm 4,0 km/h (1 Bft) SO 225 0 min 0 W/m 6,7 C 7,8 C 12,2 km/h (2 Bft)
25/01/2012 00:40 7,8 C 93 % 1022,1 hPa 0,0 mm 0,0 km/h (0 Bft) O 270 0 min 0 W/m 6,7 C 7,8 C 0,0 km/h (0 Bft)
25/01/2012 00:50 7,8 C 93 % 1022,2 hPa 0,0 mm 0,7 km/h (0 Bft) O 270 0 min 0 W/m 6,7 C 7,8 C 4,0 km/h (1 Bft)
25/01/2012 01:00 7,8 C 93 % 1022,0 hPa 0,0 mm 0,0 km/h (0 Bft) O 270 0 min 0 W/m 6,7 C 7,8 C 2,9 km/h (1 Bft)
25/01/2012 01:10 7,8 C 93 % 1022,1 hPa 0,0 mm 0,0 km/h (0 Bft) O-SO 247 0 min 0 W/m 6,7 C 7,8 C 0,0 km/h (0 Bft)
25/01/2012 01:20 7,8 C 93 % 1022,0 hPa 0,0 mm 1,8 km/h (1 Bft) O-SO 247 0 min 0 W/m 6,7 C 7,8 C 6,1 km/h (2 Bft)
25/01/2012 01:30 7,8 C 93 % 1022,0 hPa 0,0 mm 1,4 km/h (1 Bft) O 270 0 min 0 W/m 6,7 C 7,8 C 6,8 km/h (2 Bft)
25/01/2012 01:40 7,8 C 93 % 1022,0 hPa 0,0 mm 0,4 km/h (0 Bft) O 270 0 min 0 W/m 6,7 C 7,8 C 4,3 km/h (1 Bft)
25/01/2012 01:50 7,8 C 93 % 1021,9 hPa 0,0 mm 0,0 km/h (0 Bft) O 270 0 min 0 W/m 6,7 C 7,8 C 0,0 km/h (0 Bft)
25/01/2012 02:02 7,8 C 93 % 1021,9 hPa 0,0 mm 1,4 km/h (1 Bft) O-SO 247 0 min 0 W/m 6,7 C 7,8 C 6,5 km/h (2 Bft)
25/01/2012 02:10 7,8 C 94 % 1021,8 hPa 0,0 mm 0,7 km/h (0 Bft) O 270 0 min 0 W/m 6,9 C 7,8 C 3,6 km/h (1 Bft)
25/01/2012 02:20 7,8 C 94 % 1021,7 hPa 0,0 mm 1,4 km/h (1 Bft) O-SO 247 0 min 0 W/m 6,9 C 7,8 C 4,3 km/h (1 Bft)
25/01/2012 02:30 7,8 C 94 % 1021,7 hPa 0,0 mm 2,2 km/h (1 Bft) O 270 0 min 0 W/m 6,9 C 7,8 C 9,0 km/h (2 Bft)
25/01/2012 02:40 7,7 C 94 % 1021,8 hPa 0,0 mm 1,4 km/h (1 Bft) O 270 0 min 0 W/m 6,8 C 7,7 C 4,3 km/h (1 Bft)
25/01/2012 02:50 7,6 C 94 % 1021,7 hPa 0,0 mm 0,7 km/h (0 Bft) O 270 0 min 0 W/m 6,7 C 7,6 C 0,7 km/h (0 Bft)
25/01/2012 03:00 7,6 C 94 % 1021,6 hPa 0,1 mm 0,0 km/h (0 Bft) O 270 0 min 0 W/m 6,7 C 7,6 C 0,0 km/h (0 Bft)
25/01/2012 03:10 7,6 C 94 % 1021,7 hPa 0,0 mm 0,0 km/h (0 Bft) O-SO 247 0 min 0 W/m 6,7 C 7,6 C 0,0 km/h (0 Bft)
25/01/2012 03:20 7,5 C 94 % 1021,7 hPa 0,0 mm 1,1 km/h (1 Bft) O-SO 247 0 min 0 W/m 6,6 C 7,5 C 4,0 km/h (1 Bft)
25/01/2012 03:30 7,5 C 95 % 1021,6 hPa 0,0 mm 0,0 km/h (0 Bft) O-SO 247 0 min 0 W/m 6,8 C 7,5 C 2,9 km/h (1 Bft)
25/01/2012 03:40 7,5 C 95 % 1021,6 hPa 0,0 mm 0,4 km/h (0 Bft) O-SO 247 0 min 0 W/m 6,8 C 7,5 C 3,2 km/h (1 Bft)
25/01/2012 03:50 7,4 C 95 % 1021,4 hPa 0,0 mm 2,5 km/h (1 Bft) SO 225 0 min 0 W/m 6,7 C 7,4 C 6,1 km/h (2 Bft)
25/01/2012 04:00 7,4 C 95 % 1021,5 hPa 0,0 mm 0,4 km/h (0 Bft) SO 225 0 min 0 W/m 6,7 C 7,4 C 2,9 km/h (1 Bft)
25/01/2012 04:10 7,4 C 95 % 1021,5 hPa 0,1 mm 0,0 km/h (0 Bft) O-SO 247 0 min 0 W/m 6,7 C 7,4 C 0,0 km/h (0 Bft)
25/01/2012 04:20 7,3 C 95 % 1021,4 hPa 0,0 mm 0,0 km/h (0 Bft) O-SO 247 0 min 0 W/m 6,6 C 7,3 C 0,0 km/h (0 Bft)
25/01/2012 04:30 7,3 C 95 % 1021,5 hPa 0,0 mm 0,4 km/h (0 Bft) O-SO 247 0 min 0 W/m 6,6 C 7,3 C 1,4 km/h (1 Bft)
25/01/2012 04:40 7,3 C 95 % 1021,4 hPa 0,0 mm 1,1 km/h (1 Bft) S-SO 202 0 min 0 W/m 6,6 C 7,3 C 4,3 km/h (1 Bft)
25/01/2012 04:50 7,3 C 95 % 1021,2 hPa 0,0 mm 3,6 km/h (1 Bft) SO 225 0 min 0 W/m 6,6 C 7,3 C 4,3 km/h (1 Bft)
25/01/2012 05:00 7,3 C 95 % 1021,2 hPa 0,0 mm 0,0 km/h (0 Bft) SO 225 0 min 0 W/m 6,6 C 7,3 C 0,0 km/h (0 Bft)
25/01/2012 05:10 7,3 C 95 % 1021,1 hPa 0,0 mm 1,1 km/h (1 Bft) O-SO 247 0 min 0 W/m 6,6 C 7,3 C 4,3 km/h (1 Bft)
25/01/2012 05:20 7,3 C 95 % 1021,1 hPa 0,0 mm 0,4 km/h (0 Bft) O-SO 247 0 min 0 W/m 6,6 C 7,3 C 2,9 km/h (1 Bft)
25/01/2012 05:30 7,3 C 95 % 1021,0 hPa 0,0 mm 0,0 km/h (0 Bft) O-SO 247 0 min 0 W/m 6,6 C 7,3 C 0,0 km/h (0 Bft)
25/01/2012 05:40 7,3 C 95 % 1021,0 hPa 0,0 mm 1,1 km/h (1 Bft) SO 225 0 min 0 W/m 6,6 C 7,3 C 3,2 km/h (1 Bft)
25/01/2012 05:50 7,3 C 95 % 1020,9 hPa 0,0 mm 1,1 km/h (1 Bft) SO 225 0 min 0 W/m 6,6 C 7,3 C 4,3 km/h (1 Bft)
25/01/2012 06:00 7,3 C 95 % 1020,9 hPa 0,1 mm 0,0 km/h (0 Bft) SO 225 0 min 0 W/m 6,6 C 7,3 C 0,0 km/h (0 Bft)
25/01/2012 06:10 7,3 C 95 % 1020,7 hPa 0,0 mm 0,0 km/h (0 Bft) O-SO 247 0 min 0 W/m 6,6 C 7,3 C 2,9 km/h (1 Bft)
25/01/2012 06:20 7,3 C 96 % 1020,7 hPa 0,0 mm 1,4 km/h (1 Bft) SO 225 0 min 0 W/m 6,7 C 7,3 C 1,4 km/h (1 Bft)
25/01/2012 06:30 7,3 C 96 % 1020,7 hPa 0,0 mm 0,7 km/h (0 Bft) SO 225 0 min 0 W/m 6,7 C 7,3 C 4,0 km/h (1 Bft)
25/01/2012 06:40 7,4 C 96 % 1020,7 hPa 0,0 mm 0,4 km/h (0 Bft) SO 225 0 min 0 W/m 6,8 C 7,4 C 4,0 km/h (1 Bft)
25/01/2012 06:50 7,4 C 96 % 1020,7 hPa 0,0 mm 0,0 km/h (0 Bft) S-SO 202 0 min 0 W/m 6,8 C 7,4 C 0,0 km/h (0 Bft)
25/01/2012 07:00 7,4 C 96 % 1020,7 hPa 0,0 mm 0,0 km/h (0 Bft) SO 225 0 min 0 W/m 6,8 C 7,4 C 0,0 km/h (0 Bft)
25/01/2012 07:10 7,4 C 96 % 1020,7 hPa 0,0 mm 1,1 km/h (1 Bft) O-SO 247 0 min 0 W/m 6,8 C 7,4 C 3,2 km/h (1 Bft)
25/01/2012 07:20 7,4 C 96 % 1020,7 hPa 0,0 mm 0,0 km/h (0 Bft) O-SO 247 0 min 0 W/m 6,8 C 7,4 C 0,0 km/h (0 Bft)
25/01/2012 07:30 7,4 C 96 % 1020,7 hPa 0,0 mm 0,4 km/h (0 Bft) SO 225 0 min 0 W/m 6,8 C 7,4 C 0,4 km/h (0 Bft)
25/01/2012 07:40 7,4 C 96 % 1020,7 hPa 0,0 mm 0,0 km/h (0 Bft) SO 225 0 min 0 W/m 6,8 C 7,4 C 0,0 km/h (0 Bft)
25/01/2012 07:50 7,4 C 96 % 1020,7 hPa 0,0 mm 0,0 km/h (0 Bft) O-SO 247 0 min 0 W/m 6,8 C 7,4 C 0,0 km/h (0 Bft)
25/01/2012 08:00 7,4 C 96 % 1020,6 hPa 0,0 mm 0,0 km/h (0 Bft) SO 225 0 min 0 W/m 6,8 C 7,4 C 0,0 km/h (0 Bft)
25/01/2012 08:10 7,4 C 96 % 1020,5 hPa 0,0 mm 0,0 km/h (0 Bft) SO 225 0 min 0 W/m 6,8 C 7,4 C 0,0 km/h (0 Bft)
25/01/2012 08:20 7,4 C 96 % 1020,4 hPa 0,0 mm 1,8 km/h (1 Bft) SO 225 0 min 0 W/m 6,8 C 7,4 C 3,6 km/h (1 Bft)
25/01/2012 08:30 7,4 C 96 % 1020,4 hPa 0,0 mm 0,0 km/h (0 Bft) S-SO 202 0 min 0 W/m 6,8 C 7,4 C 0,0 km/h (0 Bft)
25/01/2012 08:40 7,4 C 96 % 1020,4 hPa 0,0 mm 1,8 km/h (1 Bft) SO 225 2 min 0 W/m 6,8 C 7,4 C 1,8 km/h (1 Bft)
25/01/2012 08:50 7,4 C 96 % 1020,3 hPa 0,0 mm 0,0 km/h (0 Bft) SO 225 2 min 0 W/m 6,8 C 7,4 C 0,0 km/h (0 Bft)
25/01/2012 09:00 7,4 C 96 % 1020,3 hPa 0,0 mm 0,0 km/h (0 Bft) SO 225 2 min 0 W/m 6,8 C 7,4 C 0,0 km/h (0 Bft)
25/01/2012 09:10 7,4 C 96 % 1020,4 hPa 0,0 mm 0,7 km/h (0 Bft) SO 225 2 min 0 W/m 6,8 C 7,4 C 2,9 km/h (1 Bft)
25/01/2012 09:20 7,4 C 96 % 1020,2 hPa 0,0 mm 0,0 km/h (0 Bft) SO 225 2 min 0 W/m 6,8 C 7,4 C 0,0 km/h (0 Bft)
25/01/2012 09:30 7,5 C 96 % 1020,2 hPa 0,0 mm 0,4 km/h (0 Bft) SO 225 2 min 0 W/m 6,9 C 7,5 C 0,4 km/h (0 Bft)
25/01/2012 09:40 7,6 C 96 % 1020,2 hPa 0,0 mm 0,4 km/h (0 Bft) O-SO 247 2 min 0 W/m 7,0 C 7,6 C 3,6 km/h (1 Bft)
25/01/2012 09:50 7,6 C 96 % 1020,2 hPa 0,0 mm 2,2 km/h (1 Bft) S-SO 202 2 min 0 W/m 7,0 C 7,6 C 4,3 km/h (1 Bft)
25/01/2012 10:00 7,6 C 96 % 1020,1 hPa 0,0 mm 0,0 km/h (0 Bft) SO 225 2 min 0 W/m 7,0 C 7,6 C 0,0 km/h (0 Bft)
25/01/2012 10:10 7,6 C 96 % 1020,0 hPa 0,0 mm 0,0 km/h (0 Bft) O-SO 247 2 min 0 W/m 7,0 C 7,6 C 2,9 km/h (1 Bft)
25/01/2012 10:20 7,7 C 96 % 1020,0 hPa 0,0 mm 1,1 km/h (1 Bft) SO 225 2 min 0 W/m 7,1 C 7,7 C 3,6 km/h (1 Bft)
25/01/2012 10:30 7,8 C 96 % 1019,9 hPa 0,0 mm 0,0 km/h (0 Bft) O-SO 247 2 min 0 W/m 7,2 C 7,8 C 0,0 km/h (0 Bft)
25/01/2012 10:40 7,8 C 96 % 1019,9 hPa 0,0 mm 0,0 km/h (0 Bft) SO 225 2 min 0 W/m 7,2 C 7,8 C 0,0 km/h (0 Bft)
25/01/2012 10:50 7,8 C 96 % 1019,9 hPa 0,0 mm 2,5 km/h (1 Bft) SO 225 2 min 0 W/m 7,2 C 7,8 C 5,8 km/h (2 Bft)
25/01/2012 11:00 7,9 C 96 % 1019,9 hPa 0,0 mm 0,4 km/h (0 Bft) O-SO 247 2 min 0 W/m 7,3 C 7,9 C 0,4 km/h (0 Bft)
25/01/2012 11:10 8,1 C 96 % 1019,9 hPa 0,0 mm 0,0 km/h (0 Bft) SO 225 2 min 0 W/m 7,5 C 8,1 C 0,0 km/h (0 Bft)
25/01/2012 11:20 8,2 C 96 % 1019,9 hPa 0,0 mm 0,4 km/h (0 Bft) O 270 2 min 0 W/m 7,6 C 8,2 C 3,2 km/h (1 Bft)
25/01/2012 11:30 8,2 C 96 % 1019,9 hPa 0,0 mm 0,4 km/h (0 Bft) N 360 2 min 0 W/m 7,6 C 8,2 C 0,4 km/h (0 Bft)
25/01/2012 11:40 8,2 C 96 % 1019,9 hPa 0,0 mm 1,1 km/h (1 Bft) O-SO 247 2 min 0 W/m 7,6 C 8,2 C 3,2 km/h (1 Bft)
25/01/2012 11:50 8,3 C 96 % 1019,9 hPa 0,0 mm 1,8 km/h (1 Bft) SO 225 2 min 0 W/m 7,7 C 8,3 C 4,0 km/h (1 Bft)
25/01/2012 12:00 8,3 C 96 % 1019,8 hPa 0,0 mm 0,4 km/h (0 Bft) SO 225 2 min 0 W/m 7,7 C 8,3 C 4,0 km/h (1 Bft)
25/01/2012 12:10 8,4 C 96 % 1019,6 hPa 0,0 mm 0,0 km/h (0 Bft) O-SO 247 2 min 0 W/m 7,8 C 8,4 C 0,0 km/h (0 Bft)
25/01/2012 12:20 8,5 C 96 % 1019,5 hPa 0,0 mm 0,0 km/h (0 Bft) O-SO 247 2 min 0 W/m 7,9 C 8,5 C 0,0 km/h (0 Bft)
25/01/2012 12:30 8,6 C 96 % 1019,4 hPa 0,0 mm 0,4 km/h (0 Bft) O-SO 247 2 min 0 W/m 8,0 C 8,6 C 3,2 km/h (1 Bft)
25/01/2012 12:40 8,7 C 96 % 1019,3 hPa 0,0 mm 0,0 km/h (0 Bft) O-SO 247 2 min 0 W/m 8,1 C 8,7 C 0,0 km/h (0 Bft)
25/01/2012 12:50 8,8 C 96 % 1018,9 hPa 0,0 mm 0,0 km/h (0 Bft) SO 225 2 min 0 W/m 8,2 C 8,8 C 0,0 km/h (0 Bft)
25/01/2012 13:00 9,0 C 96 % 1018,8 hPa 0,0 mm 0,7 km/h (0 Bft) SO 225 2 min 0 W/m 8,4 C 9,0 C 4,0 km/h (1 Bft)
25/01/2012 13:10 9,2 C 96 % 1018,7 hPa 0,0 mm 1,8 km/h (1 Bft) SO 225 2 min 0 W/m 8,6 C 9,2 C 4,3 km/h (1 Bft)
25/01/2012 13:20 9,3 C 96 % 1018,7 hPa 0,0 mm 3,6 km/h (1 Bft) S-SO 202 2 min 0 W/m 8,7 C 9,3 C 6,8 km/h (2 Bft)
25/01/2012 13:30 9,3 C 96 % 1018,6 hPa 0,0 mm 0,4 km/h (0 Bft) SO 225 2 min 0 W/m 8,7 C 9,3 C 3,6 km/h (1 Bft)
25/01/2012 13:40 9,3 C 96 % 1018,7 hPa 0,0 mm 0,0 km/h (0 Bft) SO 225 2 min 0 W/m 8,7 C 9,3 C 0,0 km/h (0 Bft)
25/01/2012 13:50 9,3 C 96 % 1018,8 hPa 0,0 mm 0,0 km/h (0 Bft) SO 225 2 min 0 W/m 8,7 C 9,3 C 1,4 km/h (1 Bft)
25/01/2012 14:00 9,3 C 95 % 1018,5 hPa 0,0 mm 0,0 km/h (0 Bft) SO 225 2 min 0 W/m 8,5 C 9,3 C 0,0 km/h (0 Bft)
25/01/2012 14:10 9,3 C 95 % 1018,4 hPa 0,0 mm 0,0 km/h (0 Bft) SO 225 2 min 0 W/m 8,5 C 9,3 C 0,0 km/h (0 Bft)
25/01/2012 14:20 9,4 C 95 % 1018,2 hPa 0,0 mm 0,0 km/h (0 Bft) O-SO 247 2 min 0 W/m 8,6 C 9,4 C 0,0 km/h (0 Bft)
25/01/2012 14:30 9,4 C 94 % 1018,1 hPa 0,0 mm 0,0 km/h (0 Bft) O-SO 247 2 min 0 W/m 8,5 C 9,4 C 0,0 km/h (0 Bft)
25/01/2012 14:40 9,4 C 94 % 1018,1 hPa 0,0 mm 0,0 km/h (0 Bft) O-SO 247 2 min 0 W/m 8,5 C 9,4 C 0,0 km/h (0 Bft)
25/01/2012 14:50 9,4 C 94 % 1017,9 hPa 0,0 mm 0,4 km/h (0 Bft) O-SO 247 2 min 0 W/m 8,5 C 9,4 C 3,6 km/h (1 Bft)
25/01/2012 15:00 9,4 C 94 % 1017,8 hPa 0,0 mm 0,0 km/h (0 Bft) O-SO 247 2 min 0 W/m 8,5 C 9,4 C 0,0 km/h (0 Bft)
25/01/2012 15:10 9,4 C 94 % 1017,8 hPa 0,0 mm 0,0 km/h (0 Bft) O-SO 247 2 min 0 W/m 8,5 C 9,4 C 0,0 km/h (0 Bft)
25/01/2012 15:20 9,3 C 94 % 1017,8 hPa 0,0 mm 0,0 km/h (0 Bft) O-SO 247 2 min 0 W/m 8,4 C 9,3 C 0,0 km/h (0 Bft)
25/01/2012 15:30 9,3 C 94 % 1017,6 hPa 0,0 mm 0,0 km/h (0 Bft) O-SO 247 2 min 0 W/m 8,4 C 9,3 C 0,0 km/h (0 Bft)
25/01/2012 15:40 9,2 C 93 % 1017,6 hPa 0,0 mm 0,0 km/h (0 Bft) O-SO 247 2 min 0 W/m 8,1 C 9,2 C 0,0 km/h (0 Bft)
25/01/2012 15:50 9,2 C 93 % 1017,5 hPa 0,0 mm 0,0 km/h (0 Bft) O-SO 247 2 min 0 W/m 8,1 C 9,2 C 0,0 km/h (0 Bft)
25/01/2012 16:00 9,2 C 93 % 1017,4 hPa 0,0 mm 0,0 km/h (0 Bft) O-SO 247 2 min 0 W/m 8,1 C 9,2 C 0,0 km/h (0 Bft)
25/01/2012 16:10 9,1 C 93 % 1017,4 hPa 0,0 mm 0,0 km/h (0 Bft) O-SO 247 2 min 0 W/m 8,0 C 9,1 C 0,0 km/h (0 Bft)
25/01/2012 16:20 9,1 C 93 % 1017,2 hPa 0,0 mm 0,0 km/h (0 Bft) O-SO 247 2 min 0 W/m 8,0 C 9,1 C 0,0 km/h (0 Bft)
25/01/2012 16:30 9,1 C 93 % 1017,2 hPa 0,0 mm 0,0 km/h (0 Bft) O-SO 247 2 min 0 W/m 8,0 C 9,1 C 0,0 km/h (0 Bft)
25/01/2012 16:40 9,0 C 93 % 1017,2 hPa 0,0 mm 0,0 km/h (0 Bft) O-SO 247 2 min 0 W/m 7,9 C 9,0 C 0,0 km/h (0 Bft)
25/01/2012 16:50 9,0 C 93 % 1017,1 hPa 0,0 mm 0,0 km/h (0 Bft) O-SO 247 2 min 0 W/m 7,9 C 9,0 C 0,0 km/h (0 Bft)
25/01/2012 17:00 8,9 C 93 % 1017,0 hPa 0,0 mm 0,0 km/h (0 Bft) O-SO 247 2 min 0 W/m 7,8 C 8,9 C 0,0 km/h (0 Bft)
25/01/2012 17:10 8,9 C 93 % 1017,0 hPa 0,0 mm 0,0 km/h (0 Bft) O-SO 247 2 min 0 W/m 7,8 C 8,9 C 0,0 km/h (0 Bft)
25/01/2012 17:20 8,9 C 93 % 1016,9 hPa 0,0 mm 0,0 km/h (0 Bft) O-SO 247 2 min 0 W/m 7,8 C 8,9 C 0,0 km/h (0 Bft)
25/01/2012 17:30 8,8 C 93 % 1017,1 hPa 0,0 mm 0,0 km/h (0 Bft) O-SO 247 2 min 0 W/m 7,7 C 8,8 C 0,0 km/h (0 Bft)
25/01/2012 17:40 8,8 C 93 % 1016,9 hPa 0,0 mm 0,0 km/h (0 Bft) O-SO 247 0 min 0 W/m 7,7 C 8,8 C 0,0 km/h (0 Bft)
25/01/2012 17:50 8,8 C 93 % 1016,9 hPa 0,0 mm 0,0 km/h (0 Bft) O-SO 247 0 min 0 W/m 7,7 C 8,8 C 0,0 km/h (0 Bft)
25/01/2012 18:00 8,8 C 93 % 1016,9 hPa 0,0 mm 0,0 km/h (0 Bft) O-SO 247 0 min 0 W/m 7,7 C 8,8 C 0,0 km/h (0 Bft)
25/01/2012 18:10 8,6 C 93 % 1016,8 hPa 0,0 mm 0,0 km/h (0 Bft) O-SO 247 0 min 0 W/m 7,5 C 8,6 C 0,0 km/h (0 Bft)
25/01/2012 18:20 8,6 C 93 % 1016,9 hPa 0,0 mm 0,0 km/h (0 Bft) O-SO 247 0 min 0 W/m 7,5 C 8,6 C 0,0 km/h (0 Bft)
25/01/2012 18:30 8,5 C 93 % 1016,8 hPa 0,0 mm 0,0 km/h (0 Bft) S 180 0 min 0 W/m 7,4 C 8,5 C 0,0 km/h (0 Bft)
25/01/2012 18:40 8,5 C 93 % 1016,7 hPa 0,0 mm 2,2 km/h (1 Bft) S 180 0 min 0 W/m 7,4 C 8,5 C 4,0 km/h (1 Bft)
25/01/2012 18:50 8,5 C 93 % 1016,8 hPa 0,0 mm 1,1 km/h (1 Bft) S-SE 157 0 min 0 W/m 7,4 C 8,5 C 3,2 km/h (1 Bft)
25/01/2012 19:00 8,4 C 92 % 1016,7 hPa 0,0 mm 0,0 km/h (0 Bft) S-SE 157 0 min 0 W/m 7,2 C 8,4 C 0,0 km/h (0 Bft)
25/01/2012 19:10 8,4 C 92 % 1016,7 hPa 0,0 mm 0,0 km/h (0 Bft) S-SE 157 0 min 0 W/m 7,2 C 8,4 C 0,0 km/h (0 Bft)
25/01/2012 19:20 8,4 C 92 % 1016,6 hPa 0,0 mm 0,0 km/h (0 Bft) S-SE 157 0 min 0 W/m 7,2 C 8,4 C 0,0 km/h (0 Bft)
25/01/2012 19:30 8,3 C 93 % 1016,5 hPa 0,0 mm 0,0 km/h (0 Bft) S-SE 157 0 min 0 W/m 7,2 C 8,3 C 0,0 km/h (0 Bft)
25/01/2012 19:40 8,3 C 93 % 1016,5 hPa 0,0 mm 0,0 km/h (0 Bft) S-SE 157 0 min 0 W/m 7,2 C 8,3 C 0,0 km/h (0 Bft)
25/01/2012 19:50 8,3 C 93 % 1016,4 hPa 0,0 mm 0,0 km/h (0 Bft) S-SE 157 0 min 0 W/m 7,2 C 8,3 C 0,0 km/h (0 Bft)
25/01/2012 20:00 8,2 C 93 % 1016,3 hPa 0,0 mm 0,0 km/h (0 Bft) S-SE 157 0 min 0 W/m 7,1 C 8,2 C 0,0 km/h (0 Bft)
25/01/2012 20:10 8,2 C 93 % 1016,1 hPa 0,0 mm 2,2 km/h (1 Bft) S-SE 157 0 min 0 W/m 7,1 C 8,2 C 2,2 km/h (1 Bft)
25/01/2012 20:20 8,2 C 93 % 1016,1 hPa 0,0 mm 6,1 km/h (2 Bft) SE 135 0 min 0 W/m 7,1 C 7,4 C 6,5 km/h (2 Bft)
25/01/2012 20:30 8,3 C 93 % 1016,1 hPa 0,0 mm 4,3 km/h (1 Bft) SE 135 0 min 0 W/m 7,2 C 8,3 C 4,3 km/h (1 Bft)
25/01/2012 20:40 8,3 C 92 % 1016,0 hPa 0,0 mm 2,2 km/h (1 Bft) S-SE 157 0 min 0 W/m 7,1 C 8,3 C 4,3 km/h (1 Bft)
25/01/2012 20:50 8,3 C 92 % 1016,0 hPa 0,0 mm 0,0 km/h (0 Bft) S-SE 157 0 min 0 W/m 7,1 C 8,3 C 0,0 km/h (0 Bft)
25/01/2012 21:00 8,3 C 92 % 1016,0 hPa 0,0 mm 0,0 km/h (0 Bft) SE 135 0 min 0 W/m 7,1 C 8,3 C 0,0 km/h (0 Bft)
25/01/2012 21:10 8,2 C 91 % 1016,0 hPa 0,0 mm 0,0 km/h (0 Bft) S-SE 157 0 min 0 W/m 6,8 C 8,2 C 0,0 km/h (0 Bft)
25/01/2012 21:20 8,1 C 92 % 1015,9 hPa 0,0 mm 0,0 km/h (0 Bft) SE 135 0 min 0 W/m 6,9 C 8,1 C 0,0 km/h (0 Bft)
25/01/2012 21:30 8,1 C 92 % 1015,9 hPa 0,0 mm 1,4 km/h (1 Bft) S 180 0 min 0 W/m 6,9 C 8,1 C 4,3 km/h (1 Bft)
25/01/2012 21:40 8,1 C 92 % 1015,8 hPa 0,0 mm 0,0 km/h (0 Bft) SE 135 0 min 0 W/m 6,9 C 8,1 C 1,4 km/h (1 Bft)
25/01/2012 21:50 8,1 C 91 % 1015,8 hPa 0,0 mm 0,0 km/h (0 Bft) SE 135 0 min 0 W/m 6,7 C 8,1 C 0,0 km/h (0 Bft)
25/01/2012 22:00 8,1 C 91 % 1015,7 hPa 0,0 mm 0,0 km/h (0 Bft) SE 135 0 min 0 W/m 6,7 C 8,1 C 0,0 km/h (0 Bft)
25/01/2012 22:10 8,0 C 91 % 1015,7 hPa 0,0 mm 0,0 km/h (0 Bft) SE 135 0 min 0 W/m 6,6 C 8,0 C 0,0 km/h (0 Bft)
25/01/2012 22:20 7,9 C 91 % 1015,6 hPa 0,0 mm 0,0 km/h (0 Bft) SE 135 0 min 0 W/m 6,5 C 7,9 C 0,0 km/h (0 Bft)
25/01/2012 22:30 7,9 C 91 % 1015,6 hPa 0,0 mm 0,0 km/h (0 Bft) SE 135 0 min 0 W/m 6,5 C 7,9 C 0,0 km/h (0 Bft)
25/01/2012 22:40 7,8 C 91 % 1015,4 hPa 0,0 mm 0,0 km/h (0 Bft) SE 135 0 min 0 W/m 6,4 C 7,8 C 0,0 km/h (0 Bft)
_ Min-Heure 06:30 22:40 22:40 - 22:40 - - - - 22:40 06:30 22:40
Minimum _ 7,3 C 91 % 1015,4 hPa - 0,0 km/h (0 Bft) - - - - 6,4 C 7,3 C 0,0 km/h (0 Bft)
_ Max-Heure 15:10 13:50 00:50 06:00 20:20 - - 17:30 22:40 13:50 15:10 00:30
Maximum _ 9,4 C 96 % 1022,2 hPa 0,1 mm 6,1 km/h
SE (2 Bft)
- - 2 min 0 W/m 8,7 C 9,4 C 12,2 km/h
SO (2 Bft)
Moyenne _ 8,1 C 94 % 1019,2 hPa #0,3 mm 0,6 km/h (0 Bft) O-SO - #1:48 h 0 W/m 7,2 C 8,1 C 1,7 km/h (1 Bft)
Saint Bonnet de Bellac- Haute Vienne - France